Date String (YYYY-MM-DD hh:mm:ss) UTC,Instrument flags,absolute air pressure of the measurement (hPa),sample flow rate (lpm),inlet stack bypass flow (lpm),air temperature of the measurement (°C),ambient temperature measured by the external sensor (°C),aerosol sample conditioner tube jacket temperature (°C),OPC LED temperature (°C),internal box temperature (°C),relative humidity of the measurement (%),span deviation,mass concentration of particles derived from Lorenz-Mie calculation of OPC scattering (μg/m³),mass concentration of particles derived from Lorenz-Mie calculation of OPC scattering (μg/m³),mass concentration of particles derived from Lorenz-Mie calculation of OPC scattering (μg/m³)
DateTimeUTC,F1_M11,P_M11,Q1_M11,Q2_M11,T1_M11,T2_M11,T3_M11,T4_M11,T5_M11,U1_M11,ZSPAN_M11,X2_M11,X0_M11,X1_M11
2024-04-30 10:00:00,SystemResetWarning,0819.5,5.01,000.00,025.0,024.2,000.0,033.6,026.9,016.0,0000.0,0003.14,0006.29,0001.62
2024-04-30 10:01:00,SystemResetWarning,0819.1,5.01,000.00,025.0,024.3,000.0,033.6,026.9,015.8,0000.0,0003.12,0006.05,0001.62
2024-04-30 10:02:00,SystemResetWarning,0819.2,4.99,000.00,025.0,024.3,000.0,033.6,026.9,016.0,0000.0,0003.11,0006.00,0001.58
2024-04-30 10:03:00,SystemResetWarning,0819.1,4.99,000.00,025.1,024.3,000.0,033.6,026.9,015.9,0000.0,0003.08,0005.90,0001.57
2024-04-30 10:04:00,SystemResetWarning,0819.3,5.01,000.00,025.1,024.3,000.0,033.6,026.9,016.2,0000.0,0003.00,0007.23,0001.54
2024-04-30 10:05:00,SystemResetWarning,0819.2,5.01,000.00,025.1,024.3,000.0,033.6,026.9,016.3,0000.0,0002.95,0007.31,0001.56
2024-04-30 10:06:00,SystemResetWarning,0819.1,4.99,000.00,025.1,024.3,000.0,033.6,026.9,016.3,0000.0,0003.01,0007.51,0001.56
2024-04-30 10:07:00,SystemResetWarning,0819.3,4.99,000.00,025.0,024.3,000.0,033.6,026.9,016.4,0000.0,0003.04,0007.62,0001.57
2024-04-30 10:08:00,SystemResetWarning,0819.3,4.99,000.00,025.0,024.2,000.0,033.6,026.9,016.3,0000.0,0002.99,0007.62,0001.56
2024-04-30 10:09:00,SystemResetWarning,0819.4,5.00,000.00,025.0,024.2,000.0,033.6,026.9,016.2,0000.0,0003.06,0008.02,0001.57
2024-04-30 10:10:00,SystemResetWarning,0819.3,5.01,000.00,025.0,024.2,000.0,033.6,026.9,016.1,0000.0,0003.04,0008.12,0001.56
2024-04-30 10:11:00,SystemResetWarning,0819.3,5.01,000.00,025.1,024.3,000.0,033.6,026.9,016.0,0000.0,0002.97,0008.16,0001.56
2024-04-30 10:12:00,SystemResetWarning,0819.3,5.00,000.00,025.1,024.3,000.0,033.6,026.9,016.1,0000.0,0003.07,0008.63,0001.56
2024-04-30 10:13:00,SystemResetWarning,0819.3,5.00,000.00,025.1,024.3,000.0,033.6,026.9,016.0,0000.0,0003.10,0008.81,0001.57
2024-04-30 10:14:00,SystemResetWarning,0819.3,4.99,000.00,025.0,024.2,000.0,033.6,026.9,015.8,0000.0,0003.09,0008.78,0001.56
2024-04-30 10:15:00,SystemResetWarning,0819.3,4.99,000.00,025.0,024.2,000.0,033.6,026.8,015.1,0000.0,0003.05,0007.91,0001.55
2024-04-30 10:16:00,SystemResetWarning,0819.3,4.99,000.00,025.0,024.2,000.0,033.6,026.8,015.5,0000.0,0003.07,0007.85,0001.54
2024-04-30 10:17:00,SystemResetWarning,0819.3,5.00,000.00,025.0,024.2,000.0,033.6,026.8,016.2,0000.0,0003.04,0007.76,0001.52
2024-04-30 10:18:00,SystemResetWarning,0819.3,5.00,000.00,025.0,024.2,000.0,033.6,026.8,016.2,0000.0,0003.01,0007.82,0001.52
2024-04-30 10:19:00,SystemResetWarning,0819.2,5.00,000.00,025.0,024.2,000.0,033.6,026.9,016.3,0000.0,0003.06,0007.98,0001.52
2024-04-30 10:20:00,SystemResetWarning,0819.1,5.00,000.00,025.0,024.2,000.0,033.6,026.9,016.2,0000.0,0002.99,0007.75,0001.50
2024-04-30 10:21:00,SystemResetWarning,0819.2,5.00,000.00,025.0,024.3,000.0,033.6,026.9,016.3,0000.0,0002.91,0007.49,0001.50
2024-04-30 10:22:00,SystemResetWarning,0819.4,5.01,000.00,025.0,024.3,000.0,033.6,026.9,016.4,0000.0,0002.95,0007.38,0001.49
2024-04-30 10:23:00,SystemResetWarning,0819.3,5.00,000.00,025.0,024.2,000.0,033.6,026.9,016.4,0000.0,0002.91,0007.24,0001.50
2024-04-30 10:24:00,SystemResetWarning,0819.3,4.98,000.00,025.0,024.3,000.0,033.6,026.9,016.4,0000.0,0002.85,0006.41,0001.50
2024-04-30 10:25:00,SystemResetWarning,0819.3,5.00,000.00,025.0,024.3,000.0,033.6,026.9,016.3,0000.0,0002.81,0006.43,0001.49
2024-04-30 10:26:00,SystemResetWarning,0819.3,5.01,000.00,025.1,024.3,000.0,033.6,026.9,016.3,0000.0,0002.82,0006.57,0001.47
2024-04-30 10:27:00,SystemResetWarning,0819.5,5.00,000.00,025.1,024.3,000.0,033.6,026.9,016.5,0000.0,0002.92,0006.91,0001.47
2024-04-30 10:28:00,SystemResetWarning,0819.5,5.00,000.00,025.0,024.2,000.0,033.6,026.9,016.6,0000.0,0002.90,0006.79,0001.49
2024-04-30 10:29:00,SystemResetWarning,0819.6,4.99,000.00,025.0,024.2,000.0,033.6,026.9,016.7,0000.0,0002.90,0006.66,0001.50
2024-04-30 10:30:00,SystemResetWarning,0819.6,5.01,000.00,025.0,024.2,000.0,033.6,026.9,016.7,0000.0,0002.89,0006.31,0001.50
2024-04-30 10:31:00,SystemResetWarning,0819.5,5.01,000.00,025.0,024.3,000.0,033.6,026.9,016.7,0000.0,0002.87,0006.04,0001.50
2024-04-30 10:32:00,SystemResetWarning,0819.5,5.00,000.00,025.1,024.3,000.0,033.6,026.9,016.5,0000.0,0002.91,0006.04,0001.50
2024-04-30 10:33:00,SystemResetWarning,0819.6,4.99,000.00,025.1,024.3,000.0,033.6,026.9,016.5,0000.0,0002.92,0006.05,0001.49
2024-04-30 10:34:00,SystemResetWarning,0819.7,5.01,000.00,025.1,024.3,000.0,033.6,026.9,016.5,0000.0,0002.91,0005.96,0001.47
2024-04-30 10:35:00,SystemResetWarning,0819.8,5.01,000.00,025.1,024.3,000.0,033.6,026.9,016.6,0000.0,0002.80,0006.23,0001.46
2024-04-30 10:36:00,SystemResetWarning,0819.8,4.99,000.00,025.1,024.3,000.0,033.6,026.9,016.6,0000.0,0002.78,0007.03,0001.46
2024-04-30 10:37:00,SystemResetWarning,0819.8,4.99,000.00,025.1,024.3,000.0,033.6,026.9,016.6,0000.0,0002.75,0006.98,0001.47
2024-04-30 10:38:00,SystemResetWarning,0819.8,5.00,000.00,025.1,024.3,000.0,033.6,026.9,016.7,0000.0,0002.65,0006.61,0001.48
2024-04-30 10:39:00,SystemResetWarning,0820.0,5.00,000.00,025.1,024.3,000.0,033.6,026.9,016.7,0000.0,0002.66,0006.62,0001.49
2024-04-30 10:40:00,SystemResetWarning,0820.0,5.01,000.00,025.1,024.3,000.0,033.6,026.9,015.3,0000.0,0002.67,0006.80,0001.48
2024-04-30 10:41:00,SystemResetWarning,0820.1,5.00,000.00,025.1,024.3,000.0,033.6,026.9,015.1,0000.0,0002.67,0007.18,0001.47
2024-04-30 10:42:00,SystemResetWarning,0820.3,5.00,000.00,025.1,024.3,000.0,033.6,026.9,014.9,0000.0,0002.75,0007.56,0001.46
2024-04-30 10:43:00,SystemResetWarning,0820.4,5.00,000.00,025.1,024.3,000.0,033.6,026.9,015.2,0000.0,0002.72,0007.60,0001.45
2024-04-30 10:44:00,SystemResetWarning,0820.4,4.99,000.00,025.1,024.3,000.0,033.6,026.9,015.9,0000.0,0002.75,0007.66,0001.46
2024-04-30 10:45:00,SystemResetWarning,0820.8,4.99,000.00,025.1,024.3,000.0,033.6,026.9,015.5,0000.0,0002.71,0008.16,0001.46
2024-04-30 10:46:00,SystemResetWarning,0820.6,5.01,000.00,025.1,024.3,000.0,033.6,026.9,016.3,0000.0,0002.74,0009.23,0001.44
2024-04-30 10:47:00,SystemResetWarning,0820.6,5.00,000.00,025.1,024.3,000.0,033.6,026.9,017.2,0000.0,0002.75,0008.60,0001.44
2024-04-30 10:48:00,SystemResetWarning,0820.7,5.00,000.00,025.1,024.3,000.0,033.6,026.9,017.7,0000.0,0002.85,0008.71,0001.47
2024-04-30 10:49:00,SystemResetWarning,0820.5,5.00,000.00,025.1,024.3,000.0,033.6,026.9,017.7,0000.0,0002.97,0008.80,0001.52
2024-04-30 10:50:00,SystemResetWarning,0820.7,5.00,000.00,025.1,024.3,000.0,033.6,026.9,017.4,0000.0,0003.05,0008.90,0001.55
2024-04-30 10:51:00,SystemResetWarning,0820.7,4.99,000.00,025.1,024.3,000.0,033.6,026.9,017.7,0000.0,0003.11,0008.93,0001.58
2024-04-30 10:52:00,SystemResetWarning,0820.8,5.00,000.00,025.1,024.3,000.0,033.6,026.9,018.0,0000.0,0003.20,0009.06,0001.62
2024-04-30 10:53:00,SystemResetWarning,0820.8,5.00,000.00,025.1,024.3,000.0,033.6,026.9,018.1,0000.0,0003.23,0009.01,0001.68
2024-04-30 10:54:00,SystemResetWarning,0820.8,5.01,000.00,025.1,024.3,000.0,033.6,026.9,018.2,0000.0,0003.29,0009.05,0001.75
2024-04-30 10:55:00,SystemResetWarning,0820.8,5.00,000.00,025.0,024.3,000.0,033.6,026.9,018.3,0000.0,0003.32,0009.09,0001.80
2024-04-30 10:56:00,SystemResetWarning,0820.8,4.99,000.00,025.0,024.3,000.0,033.6,026.9,018.4,0000.0,0003.42,0009.23,0001.88
2024-04-30 10:57:00,SystemResetWarning,0820.8,4.98,000.00,025.0,024.3,000.0,033.6,026.9,018.4,0000.0,0003.51,0008.41,0001.97
2024-04-30 10:58:00,SystemResetWarning,0820.8,5.01,000.00,025.0,024.3,000.0,033.6,026.9,018.5,0000.0,0003.64,0008.75,0002.05
2024-04-30 10:59:00,SystemResetWarning,0821.0,5.01,000.00,025.0,024.3,000.0,033.6,026.9,018.6,0000.0,0003.69,0009.03,0002.10
